User: anonymous   Login
Location: Albany
(35.0000°S, 118.0000°E)
Time: 22:58:45
(UTC-04:00)
Language:

Cosmos 1758 Rocket - Orbit

View from above orbital plane
View from above orbital plane
View from above satellite
View from above satellite

Ground track
Ground track

The orbit data is extracted from the following two-line orbital elements,

1 16792U 86046B   17147.61952573 +.00000099 +00000-0 +92276-5 0  9996
2 16792 082.4843 221.7569 0024275 004.6568 107.6128 14.83132064650746
Epoch (UTC): 27 May 2017 14:52:07
Eccentricity: 0.0024275
inclination: 82.4843°
perigee height: 602 km
apogee height: 636 km
right ascension of ascending node: 221.7569°
argument of perigee: 4.6568°
revolutions per day: 14.83132064
mean anomaly at epoch: 107.6128°
orbit number at epoch: 65074

The dashed part of the orbit path shows where the satellite is in the earth's shadow,  

DLR